(103660) = 2000 CJ46 = 2001 QO95

Discovered at Socorro on 2000-02-02 by LINEAR.

Orbit

Orbit type: Main Belt

Note: WebGL enabled browser required.

epoch2023-09-13.0
epoch JD2460200.5
perihelion date2022-09-20.15858
perihelion JD2459842.65858
argument of perihelion (°)59.78338
ascending node (°)157.73072
inclination (°)1.51756
eccentricity0.1336114
perihelion distance (AU)2.0610174
Tisserand w.r.t. Jupiter3.5
ΔV w.r.t. Earth (km/sec)8.9
semimajor axis (AU)2.3788604
mean anomaly (°)96.12604
mean daily motion (°/day)0.26862750
aphelion distance (AU)2.697
period (years)3.67
P-vector [x]-0.79308870
P-vector [y]-0.56755254
P-vector [z]-0.22112085
Q-vector [x]0.60902347
Q-vector [y]-0.73290185
Q-vector [z]-0.30322481
absolute magnitude16.54
phase slope0.15
uncertainty0
referenceMPEC 2024-A48
observations used681
oppositions16
arc length (days)8655
first opposition used2000
last opposition used2023
residual rms (arc-secs)0.69
perturbers coarse indicatorM-v
perturbers precise indicator003Ek
first observation date used2000-02-02.0
last observation date used2023-10-14.0
computer nameMPCLINUX
JD of orbit computation2456670.872472
perihelion JD uncertainty (days)7.7718E-05
argument of perihelion uncertainty (°)1.2548E-04
ascending node uncertainty (°)1.2433E-04
inclination uncertainty (°)5.2202E-06
eccentricity uncertainty 3.8689E-08
perihelion distance uncertainty (AU)9.3005E-08
Minimum Orbit Intersection Distances (in AU)
for orbit epoch: 2460200.5, reference: E2024-A48
Mercury1.61154
Venus1.3381
Earth1.05316
Mars0.45016
Jupiter2.26638
Saturn6.43806
Uranus16.2335
Neptune27.1437

Observations

693 total observations over interval: 2000 02 02.32808 – 2023 10 14.162383
These data are available for download (format description).

Date (UT) J2000 RA J2000 Dec Magn Location Ref
2000 02 02.32808 10 10 13.19 +10 34 45.6 19.0   704 – Lincoln Laboratory ETS, New Mexico MPS 10376
2000 02 02.34207 10 10 12.58 +10 34 50.2 19.0   704 – Lincoln Laboratory ETS, New Mexico MPS 10376
2000 02 02.35605 10 10 11.80 +10 34 54.8 19.2   704 – Lincoln Laboratory ETS, New Mexico MPS 10376
2000 02 02.37018 10 10 11.06 +10 34 58.3 19.5   704 – Lincoln Laboratory ETS, New Mexico MPS 10376
2000 02 02.38418 10 10 10.44 +10 35 04.0 19.4   704 – Lincoln Laboratory ETS, New Mexico MPS 10376
2000 02 06.23834 10 06 57.40 +10 55 36.4 19.1   704 – Lincoln Laboratory ETS, New Mexico MPS 10376
2000 02 06.25330 10 06 56.64 +10 55 42.2 19.1   704 – Lincoln Laboratory ETS, New Mexico MPS 10376
2000 02 06.26819 10 06 55.77 +10 55 47.6 18.6   704 – Lincoln Laboratory ETS, New Mexico MPS 10376
2000 02 06.28313 10 06 54.98 +10 55 52.6 19.2   704 – Lincoln Laboratory ETS, New Mexico MPS 10376
2000 02 06.29804 10 06 54.11 +10 55 58.6 19.1   704 – Lincoln Laboratory ETS, New Mexico MPS 10376
2000 02 08.43133 10 04 59.85 +11 08 00.0 18.7 V 691 – Steward Observatory, Kitt Peak-Spacewatch MPS 10376
2000 02 08.45274 10 04 58.65 +11 08 07.4 18.7 V 691 – Steward Observatory, Kitt Peak-Spacewatch MPS 10376
2000 02 08.47401 10 04 57.46 +11 08 14.8 18.6 V 691 – Steward Observatory, Kitt Peak-Spacewatch MPS 10376
2000 02 11.32607 10 02 19.43 +11 24 53.2 19.5   704 – Lincoln Laboratory ETS, New Mexico MPS 10376
2000 02 11.34047 10 02 18.48 +11 24 59.5 19.4   704 – Lincoln Laboratory ETS, New Mexico MPS 10376
2000 02 11.35486 10 02 17.57 +11 25 06.5 19.8   704 – Lincoln Laboratory ETS, New Mexico MPS 10376
2000 02 29.17283 09 45 11.11 +13 11 19.2 19.0   704 – Lincoln Laboratory ETS, New Mexico MPS 11035
2000 02 29.18711 09 45 10.31 +13 11 24.2 19.8   704 – Lincoln Laboratory ETS, New Mexico MPS 11035
2000 02 29.20047 09 45 09.51 +13 11 28.0 20.3   704 – Lincoln Laboratory ETS, New Mexico MPS 11035
2000 02 29.21384 09 45 08.84 +13 11 33.0 19.7   704 – Lincoln Laboratory ETS, New Mexico MPS 11035
2000 02 29.22723 09 45 08.09 +13 11 37.5 19.5   704 – Lincoln Laboratory ETS, New Mexico MPS 11035
2000 03 02.19867 09 43 23.23 +13 22 24.0 19.0 V 691 – Steward Observatory, Kitt Peak-Spacewatch MPS 16837
2000 03 02.22049 09 43 22.03 +13 22 30.7 19.1 V 691 – Steward Observatory, Kitt Peak-Spacewatch MPS 16837
2000 03 02.24202 09 43 20.87 +13 22 37.8 19.0 V 691 – Steward Observatory, Kitt Peak-Spacewatch MPS 16837
2000 03 03.13040 09 42 35.12 +13 27 21.3 19.4   704 – Lincoln Laboratory ETS, New Mexico MPS 11035
2000 03 03.15705 09 42 33.71 +13 27 29.9 18.5   704 – Lincoln Laboratory ETS, New Mexico MPS 11035
2000 03 03.17037 09 42 32.98 +13 27 33.4 18.7   704 – Lincoln Laboratory ETS, New Mexico MPS 11035
2000 03 03.18371 09 42 32.31 +13 27 38.3 18.8   704 – Lincoln Laboratory ETS, New Mexico MPS 11035
2000 03 04.16795 09 41 42.58 +13 32 47.9 19.0   704 – Lincoln Laboratory ETS, New Mexico MPS 11035
2000 03 04.18142 09 41 41.85 +13 32 50.3 18.9   704 – Lincoln Laboratory ETS, New Mexico MPS 11035
2000 03 04.19493 09 41 41.12 +13 32 54.7 18.7   704 – Lincoln Laboratory ETS, New Mexico MPS 11035
2000 03 04.20207 09 41 40.77 +13 32 56.8 19.7 V 691 – Steward Observatory, Kitt Peak-Spacewatch MPS 11035
2000 03 04.20838 09 41 40.39 +13 32 56.6 19.5   704 – Lincoln Laboratory ETS, New Mexico MPS 11035
2000 03 04.22927 09 41 39.35 +13 33 05.1 19.0 V 691 – Steward Observatory, Kitt Peak-Spacewatch MPS 11035
2000 03 04.25498 09 41 38.01 +13 33 12.9 19.0 V 691 – Steward Observatory, Kitt Peak-Spacewatch MPS 11035
2000 03 05.25613 09 40 48.65 +13 38 19.2 19.2   704 – Lincoln Laboratory ETS, New Mexico MPS 11035
2000 03 05.26941 09 40 47.94 +13 38 22.9 19.2   704 – Lincoln Laboratory ETS, New Mexico MPS 11035
2000 03 05.28270 09 40 47.33 +13 38 27.0 19.7   704 – Lincoln Laboratory ETS, New Mexico MPS 11035
2000 03 05.29601 09 40 46.64 +13 38 30.4 19.7   704 – Lincoln Laboratory ETS, New Mexico MPS 11035
2000 03 09.23134 09 37 46.23 +13 57 16.7 19.4   704 – Lincoln Laboratory ETS, New Mexico MPS 11035
2000 03 09.25755 09 37 45.09 +13 57 23.2 19.7   704 – Lincoln Laboratory ETS, New Mexico MPS 11035
2000 03 09.26628 09 37 44.68 +13 57 25.6 19.1 V 691 – Steward Observatory, Kitt Peak-Spacewatch MPS 11035
2000 03 09.27035 09 37 44.48 +13 57 26.6 20.0   704 – Lincoln Laboratory ETS, New Mexico MPS 11035
2000 03 09.28317 09 37 43.86 +13 57 30.2 19.7   704 – Lincoln Laboratory ETS, New Mexico MPS 11035
2000 03 09.28774 09 37 43.70 +13 57 31.3 19.1 V 691 – Steward Observatory, Kitt Peak-Spacewatch MPS 11035
2000 03 09.30933 09 37 42.73 +13 57 37.1 19.2 V 691 – Steward Observatory, Kitt Peak-Spacewatch MPS 11035
2000 03 10.38570 09 36 57.28 +14 02 21.7 18.9 V 691 – Steward Observatory, Kitt Peak-Spacewatch MPS 11035
2000 03 10.39135 09 36 57.04 +14 02 23.2 18.9 V 691 – Steward Observatory, Kitt Peak-Spacewatch MPS 11035
2000 03 10.39697 09 36 56.79 +14 02 24.6 18.9 V 691 – Steward Observatory, Kitt Peak-Spacewatch MPS 11035
2000 03 11.24273 09 36 22.88 +14 06 02.1 18.9 V 691 – Steward Observatory, Kitt Peak-Spacewatch MPS 11035
2000 03 11.24735 09 36 22.69 +14 06 03.2 18.8 V 691 – Steward Observatory, Kitt Peak-Spacewatch MPS 11035
2000 03 11.25170 09 36 22.51 +14 06 04.2 19.0 V 691 – Steward Observatory, Kitt Peak-Spacewatch MPS 11035
2000 03 12.24007 09 35 44.00 +14 10 09.7 19.0 V 691 – Steward Observatory, Kitt Peak-Spacewatch MPS 11035
2000 03 12.26675 09 35 42.93 +14 10 16.2 19.1 V 691 – Steward Observatory, Kitt Peak-Spacewatch MPS 11035
2000 03 12.29318 09 35 41.85 +14 10 22.5 19.2 V 691 – Steward Observatory, Kitt Peak-Spacewatch MPS 11035
2001 08 14.41608 21 43 58.89 -12 55 14.7 20.6   608 – Haleakala-AMOS MPS 34181
2001 08 14.42641 21 43 58.23 -12 55 17.7 20.0   608 – Haleakala-AMOS MPS 34181
2001 08 14.43731 21 43 57.63 -12 55 21.4 20.3   608 – Haleakala-AMOS MPS 34181
2001 08 16.27109 21 42 12.75 -13 05 36.8 19.2   704 – Lincoln Laboratory ETS, New Mexico MPS 34181
2001 08 16.29574 21 42 11.31 -13 05 46.2 19.3   704 – Lincoln Laboratory ETS, New Mexico MPS 34181
2001 08 16.30799 21 42 10.56 -13 05 49.7 19.2   704 – Lincoln Laboratory ETS, New Mexico MPS 34181
2001 08 16.32021 21 42 09.86 -13 05 53.9 19.6   704 – Lincoln Laboratory ETS, New Mexico MPS 34181
2001 08 22.16120 21 36 40.47 -13 37 53.6 20.1 V 691 – Steward Observatory, Kitt Peak-Spacewatch MPS 33636
2001 08 22.18364 21 36 39.21 -13 38 01.4 20.0 V 691 – Steward Observatory, Kitt Peak-Spacewatch MPS 33636
2001 08 22.20563 21 36 37.95 -13 38 08.2 19.8 V 691 – Steward Observatory, Kitt Peak-Spacewatch MPS 33636
2001 08 24.23013 21 34 47.27 -13 48 49.9 20.0 V 691 – Steward Observatory, Kitt Peak-Spacewatch MPS 33636
2001 08 24.25207 21 34 46.04 -13 48 56.7 20.0 V 691 – Steward Observatory, Kitt Peak-Spacewatch MPS 33636
2001 08 24.27421 21 34 44.80 -13 49 03.7 20.0 V 691 – Steward Observatory, Kitt Peak-Spacewatch MPS 33636
2004 03 15.42538 14 05 26.17 -10 59 58.9 17.6 V 703 – Catalina Sky Survey MPS 102006
2004 03 15.43679 14 05 26.01 -10 59 58.5 19.8 V 703 – Catalina Sky Survey MPS 102006
2004 03 15.44818 14 05 25.95 -10 59 56.5 19.5 V 703 – Catalina Sky Survey MPS 102006
2004 03 15.45956 14 05 25.69 -10 59 54.8 19.2 V 703 – Catalina Sky Survey MPS 102006
2004 03 18.40412 14 04 43.38 -10 51 56.0 19.1   704 – Lincoln Laboratory ETS, New Mexico MPS 102006
2004 03 18.41539 14 04 43.08 -10 51 53.9 19.5   704 – Lincoln Laboratory ETS, New Mexico MPS 102006
2004 03 18.42639 14 04 42.87 -10 51 52.1 19.6   704 – Lincoln Laboratory ETS, New Mexico MPS 102006
2004 03 18.44816 14 04 42.44 -10 51 47.8 19.2   704 – Lincoln Laboratory ETS, New Mexico MPS 102006
2004 03 20.38638 14 04 05.25 -10 45 44.1 19.1   704 – Lincoln Laboratory ETS, New Mexico MPS 140924
2004 03 20.39709 14 04 05.02 -10 45 41.4 19.8   704 – Lincoln Laboratory ETS, New Mexico MPS 140924
2004 03 20.40766 14 04 04.75 -10 45 38.9 19.7   704 – Lincoln Laboratory ETS, New Mexico MPS 140924
2004 03 20.41841 14 04 04.50 -10 45 37.2 19.5   704 – Lincoln Laboratory ETS, New Mexico MPS 140924
2004 03 20.42906 14 04 04.21 -10 45 34.8 19.4   704 – Lincoln Laboratory ETS, New Mexico MPS 140924
2004 03 22.44010 14 03 17.87 -10 38 36.9 19.0 R 699 – Lowell Observatory-LONEOS MPS 102915
